Regional Weather Roundup
Issued by NWS

Home | Current Version | Previous Version | Text Only | Print | Product List | Glossary Off
Versions: 1 2 3 4 5 6 7 8 9 10 11 12 13 14 15 16 17 18 19 20 21 22 23 24 25 26 27 28 29 30 31 32 33 34 35 36 37 38 39 40 41 42 43 44 45 46 47 48 49 50

000
ASUS45 KTFX 301104
RWRMT
MONTANA HOURLY WEATHER ROUNDUP
NATIONAL WEATHER SERVICE GREAT FALLS MT
504 AM MDT MON MAR 30 2015

NOTE: "FAIR" INDICATES FEW OR NO CLOUDS BELOW 12000 FEET WITH NO
SIGNIFICANT WEATHER AND/OR OBSTRUCTIONS TO VISIBILITY.

* THESE STATIONS ARE NOT UNDER NWS QUALITY CONTROL. THEY DO NOT
   REPORT WEATHER SUCH AS PRECIPITATION OR FOG.

MTZ001>007-043-301200-
WEST OF THE DIVIDE
CITY           SKY/WX    TMP DP  RH WIND       PRES   REMARKS
KALISPELL      CLEAR     30  28  92 W3        30.13R
MISSOULA       FAIR      36  30  79 CALM      30.18R
BUTTE          PTCLDY    30  25  82 VRB3      30.18S
MULLAN PASS    PTCLDY    36  27  70 S5        30.15S WCI  32
* ESSEX        N/A       33  31  92 N/A        N/A
* LINCOLN      N/A       40  30  68 S3         N/A
* LOOKOUT PASS N/A       34  30  85 SE1        N/A
* POLSON       N/A       40  33  76 N/A        N/A
* SEELEY LAKE  N/A       27  25  92 NE1G6      N/A
* THOMP F APT  PTCLDY    36  17  46 NE2G8      N/A
* YAAK HILL    N/A       37  34  89 E2         N/A
$$

MTZ008-052>055-301200-
SOUTHWEST MONTANA
CITY           SKY/WX    TMP DP  RH WIND       PRES   REMARKS
BOZEMAN        CLOUDY    37  28  70 S9        30.15F WCI  30
DILLON         MOCLDY    41  23  49 S13       30.16S
* W YELLOWSTON PTCLDY    26  21  81 N/A        N/A
* BOULDER HILL N/A       41  23  49 S4         N/A
* HOMESTAKE PS N/A       37  25  62 W2         N/A
* MONIDA PASS  N/A       31  18  59 VRB1       N/A
* RAYNOLDS PAS N/A       32  14  47 S8G15      N/A   WCI  25
* WHITEHALL    N/A       44  26  49 NW5        N/A
* WISE RIVER   N/A       30  25  82 W5         N/A   WCI  25
$$

MTZ009>010-012-014-046-048-049-054-301200-
EAST SLOPES AND CENTRAL MONTANA
CITY           SKY/WX    TMP DP  RH WIND       PRES   REMARKS
CUT BANK       PTCLDY    39  28  65 W10       30.05R WCI  32
GREAT FALLS    MOCLDY    46  30  54 SW10      30.04S
HELENA         PTCLDY    45  28  51 CALM      30.12S
MALMSTROM AFB  MOCLDY    43  30  60 SW8       30.05S
* DEARBORN     N/A       53  30  41 W2         N/A
* EAST GLACIER N/A       44  28  53 W20        N/A
* MONARCH      N/A       44  21  40 W17G26     N/A
* PENDROY      N/A       46  29  52 NW12       N/A
* ROGERS PASS  N/A       42  29  60 E8G21      N/A
* SAINT MARY   N/A       44  28  53 S10G22     N/A
$$

MTZ011-013-016-021-035-040-045-047-050-051-301200-
NORTH CENTRAL MONTANA
CITY           SKY/WX    TMP DP  RH WIND       PRES   REMARKS
HAVRE          PTCLDY    39  32  76 W8        29.99R WCI  33
LEWISTOWN      PTCLDY    39  28  65 W3        30.05R
* N BAR RANCH  CLEAR     46  27  48 W8        30.06R
* MALTA APT    CLOUDY    48  32  54 W13        N/A
* CHESTER      N/A       48  31  52 NW12G23    N/A
* DENTON       N/A       46  28  50 W17G22     N/A
* GEYSER       N/A       43  26  51 W12G19     N/A
* JUDITH GAP   N/A       48  22  36 S4G22      N/A
* LOMA         N/A       47  31  54 SW11G16    N/A
$$

MTZ017>020-022>027-061-062-301200-
NORTHEAST MONTANA
CITY           SKY/WX    TMP DP  RH WIND       PRES   REMARKS
GLASGOW        CLOUDY    48  32  54 W18       29.91R
GLENDIVE       CLOUDY    48  30  50 W13       29.92S
JORDAN         CLOUDY    46  34  63 W10       29.96R
SIDNEY         MOCLDY    48  32  54 SW10      29.86S
WOLF POINT     MOCLDY    43  34  71 W13       29.88R
* BEAVER HILL  N/A       44  29  56 SW13       N/A
* CIRCLE       N/A       42  34  73 N/A        N/A
* LINDSAY DVD  N/A       49  31  50 W20G31     N/A
* NAVAJO       N/A       44  33  65 W23        N/A
* SACO         N/A       48  33  56 W14        N/A
$$

MTZ028>042-056>058-301200-
SOUTHCENTRAL AND SOUTHEAST MONTANA
CITY           SKY/WX    TMP DP  RH WIND       PRES   REMARKS
BAKER          CLOUDY    45  30  56 W12       29.96R
BILLINGS       CLOUDY    54  27  35 W17       30.06R
LIVINGSTON     MOCLDY    45  27  49 W15       30.12S
MILES CITY     CLOUDY    39  28  65 SW10      29.99R WCI  32
* ALZADA       N/A       41  27  58 SW6        N/A
* HYSHAM       N/A       46  21  37 W5         N/A
* LAME DEER    N/A       45  24  44 W8         N/A
* REED POINT   N/A       49  26  41 NE1        N/A
* ROSCOE HILL  N/A       48  11  22 NW2G10     N/A
$$

REGIONAL REPORTS...DAKOTAS
CITY           SKY/WX    TMP DP  RH WIND       PRES   REMARKS
WILLISTON      MOCLDY    41  30  65 SW5       29.83R
DICKINSON      CLOUDY    45  28  51 W16       29.86S
CROSBY         CLEAR     43  36  76 W18       29.78R
WATFORD CITY   CLEAR     39  32  76 SW10      29.81F WCI  32
BISMARCK       PTCLDY    32  27  82 SW5       29.86F WCI  27
GRAND FORKS    CLOUDY    36  30  79 CALM      29.88F
FARGO          CLOUDY    36  28  73 CALM      29.90F
BUFFALO SD     MOCLDY    37  27  67 W14       29.90R WCI  28
RAPID CITY     PTCLDY    43  23  45 NW14      29.98S
$$

REGIONAL REPORTS...WYOMING/IDAHO/WASHINGTON
CITY           SKY/WX    TMP DP  RH WIND       PRES   REMARKS
GILLETTE       MOCLDY    43  21  42 W15       30.05R
SHERIDAN       MOCLDY    34  27  76 SW6       30.06R WCI  29
CODY           CLOUDY    54  18  24 W9G17     30.11R
YELLOWSTONE LA MOCLDY    21  18  88 CALM      30.26R
SALMON         CLEAR     34  27  76 CALM      30.21R
MULLAN PASS    PTCLDY    36  27  70 S5        30.15S WCI  32
SAND POINT     PTCLDY    36  36 100 CALM      30.14S
SPOKANE        PTCLDY    45  37  74 SE9       30.11F

$$



USA.gov is the U.S. government's official web portal to all federal, state and local government web resources and services.